User: anonymous   Login
Location: Sunny Point
(33.0946°N, 85.0574°W)
Time: 08:46:31
(UTC+00:00)
Language:

BUGSAT 1 - Orbit

View from above orbital plane
View from above orbital plane
View from above satellite
View from above satellite

Ground track
Ground track

The orbit data is extracted from the following two-line orbital elements,

1 40014U 14033E   24203.86198980  .00010082  00000-0  71396-3 0  9990
2 40014  98.1237 247.2199 0035196  20.0160 340.2436 15.04534562550858
Epoch (UTC): 21 July 2024 20:41:15
Eccentricity: 0.0035196
inclination: 98.1237°
perigee height: 528 km
apogee height: 577 km
right ascension of ascending node: 247.2199°
argument of perigee: 20.0160°
revolutions per day: 15.04534562
mean anomaly at epoch: 340.2436°
orbit number at epoch: 55085

The dashed part of the orbit path shows where the satellite is in the earth's shadow,  

DLR